Powrót do katalogu

TIANQI 24

AktywnyŁącznośćLEO
NORAD 57795·PAYLOAD·🇨🇳 China

Wystrzelony Sep 5, 2023 z Yellow Sea Launch Area

Loading…

Następne Przeloty (najbliższe 24 godziny)

TLE

ŚwieżeSource: Space-Track

Epoka: Sep 14, 2026, 14:57 UTC

1 57795U 23135D   26257.62301656  .00000251  00000-0  18028-3 0  9998
2 57795  49.9728 136.4610 0013301 213.0343 146.9739 14.23180627157364

Śledź TIANQI 24 w czasie rzeczywistym z AllMySat

Download on the App Store